Regional Weather Roundup
Issued by NWS Cleveland, OH

Home | Current Version | Previous Version | Text Only | Print | Product List | Glossary Off
Versions: 1 2 3 4 5 6 7 8 9 10 11 12 13 14 15 16 17 18 19 20 21 22 23 24 25 26 27 28 29 30 31 32 33 34 35 36 37 38 39 40 41 42 43 44 45 46 47 48 49 50

000
ASUS41 KCLE 200700
RWRCLE
OHIO REGIONAL WEATHER ROUNDUP
NATIONAL WEATHER SERVICE WILMINGTON, OH
300 AM EDT FRI OCT 20 2017

NOTE: "FAIR" INDICATES FEW OR NO CLOUDS BELOW 12,000 FEET WITH NO
SIGNIFICANT WEATHER AND/OR OBSTRUCTIONS TO VISIBILITY.

OHZ001>008-015>018-024>027-034-035-043-044-200800-
   NORTHWEST OHIO

CITY           SKY/WX    TMP DP  RH WIND       PRES   REMARKS
DEFIANCE       FAIR      42  38  85 CALM      30.22R
FINDLAY        FAIR      47  41  80 CALM      30.22R
TOLEDO EXPRESS FAIR      44  37  76 CALM      30.21S
TOLEDO EXEC    FAIR      44  37  76 S3        30.22S
LIMA           FAIR      47  46  97 CALM      30.23R FOG
$$

OHZ009>014-019>023-028>033-038-089-200800-
   NORTHEAST OHIO

CITY           SKY/WX    TMP DP  RH WIND       PRES   REMARKS
CLE-HOPKINS    FAIR      50  47  89 S3        30.23S
CLE-LAKEFRONT  FAIR      56  46  69 SE6       30.20R
CUY CO. ARPT   NOT AVBL
LORAIN-ELYRIA  FAIR      47  40  76 SW3       30.22S
ASHTABULA      FAIR      45  45 100 CALM      30.20S
AKRON-CANTON   FAIR      53  46  77 W5        30.21R
WOOSTER        NOT AVBL
MANSFIELD      FAIR      50  47  89 NW3       30.23R
YOUNGSTOWN     FAIR      50  48  93 CALM      30.20R
$$

OHZ042-051>053-060>062-070>072-077>081-200800-
  SOUTHWEST OHIO

CITY           SKY/WX    TMP DP  RH WIND       PRES   REMARKS
CINC-COVINGTON FAIR      51  50  96 CALM      30.24R
CINC-LUNKEN    FAIR      48  48 100 CALM      30.26R
HAMILTON       FAIR      44  43  96 CALM      30.25S FOG
DAYTON         NOT AVBL
WRIGHT-PAT AFB FAIR      51  51  99 CALM      30.23S
DAYTON GENERAL FAIR      54  49  83 S3        30.24R
WILMINGTON     FAIR      51  49  92 S3        30.25R
$$

OHZ036-037-039>041-045>050-054>059-063>069-073>076-082>088-200800-
  CENTRAL AND SOUTHEAST OHIO

CITY           SKY/WX    TMP DP  RH WIND       PRES   REMARKS
COLUMBUS       FAIR      51  50  96 E3        30.23R
OSU AIRPORT    FAIR      53  51  93 CALM      30.23R
BOLTON FIELD   NOT AVBL
RICKENBACK AFB NOT AVBL
NEWARK         FAIR      48  45  89 CALM      30.23R
MARION         FAIR      47  44  90 CALM      30.24R FOG
LANCASTER      FAIR      49  47  93 CALM      30.24R
ZANESVILLE     FAIR      51  47  86 CALM      30.23R
NEW PHILLY     FAIR      49  47  93 CALM      30.22S
$$



USA.gov is the U.S. government's official web portal to all federal, state and local government web resources and services.